Meteo Giornale » Osservazioni meteo Stati Uniti (USA) » Kokomo

ore: 18:56 - Osservazioni Meteo Kokomo
Lat. 40° 32' N Lon. 86° 4' W Alt. 253 metri s.l.m.

sereno

32 °C

Sereno

Temp. 24 Ore

23 °C

34 °C

Ovest/Sud-Ovest

13 Km/h

Dew point 24 °C

Umidità 62 %

Visibilità  10 Km

Il sole sorge alle ore 07:11

Il sole tramonta alle ore 20:16

Data e Ora Cielo e Fenomeni T °C DP °C Um. % Pres. hPa Vis. km Vento km/h
Oggi h: 18:56 sereno Sereno 32 24 62 1016 10 O/SO 13
Oggi h: 17:56 sereno Sereno 33 24 59 1016 10 O 16.7
Oggi h: 16:56 sereno Sereno 33 23 55 1016 10 O 16.7
Oggi h: 15:56 sereno Sereno 34 24 56 1016 10 O/SO 14.8
Oggi h: 14:56 sereno Sereno 33 24 59 1017 10 S/SO 16.7
Oggi h: 13:56 sereno Sereno 33 24 59 1017 10 O/SO 20.3
Oggi h: 12:56 sereno Sereno 32 23 59 1017 10 SO 14.8
Oggi h: 11:56 sereno Sereno 31 23 62 1017 10 SO 14.8
Oggi h: 10:56 sereno Sereno 29 22 66 1018 10 O/SO 14.8
Oggi h: 09:56 sereno Sereno 28 22 69 1018 10 SO 14.8
Oggi h: 09:46 poco_nuvoloso Poco Nuvoloso 27 22 74 1018 10 O/SO 16.7
Oggi h: 08:56 sereno Sereno 26 22 78 1018 10 O/SO 14.8
Oggi h: 07:56 sereno Sereno 23 22 94 1017 10 SO 13
Oggi h: 06:56 sereno Sereno 23 21 88 1017 10 SO 11.1
Oggi h: 05:56 sereno Sereno 24 22 88 1017 10 SO 14.8
Oggi h: 04:56 sereno Sereno 24 22 88 1016 10 O/SO 18.5
Oggi h: 03:56 sereno Sereno 25 22 83 1016 10 O/SO 18.5
Oggi h: 02:56 sereno Sereno 26 21 73 1016 10 SO 20.3
Oggi h: 01:56 sereno Sereno 25 22 83 1016 10 S/SO 14.8
Oggi h: 00:56 sereno Sereno 24 22 88 1017 10 S/SO 11.1
Ieri h: 23:56 sereno Sereno 26 22 78 1016 10 S/SO 16.7
Ieri h: 22:56 sereno Sereno 25 22 83 1016 10 S 16.7
Ieri h: 21:56 sereno Sereno 25 22 83 1017 10 S/SO 9.3
Ieri h: 20:56 poco_nuvoloso Poco Nuvoloso 26 22 78 1017 10 S/SE 7.4
Ieri h: 19:56 sereno Sereno 28 22 69 1016 10 S 11.1